Orbital Elements at Epoch 2459000.5 (2020-May-31.0) TDB
Reference: JPL 26 (heliocentric ecliptic J2000)
Element | Value | Uncertainty (1-sigma) | Units |
e | .1862932505755457 | 4.0474e-08 | |
a | 2.745230670552619 | 1.4216e-08 | au |
q | 2.233812725355687 | 1.1197e-07 | au |
i | 13.71105087433695 | 3.4751e-06 | deg |
node | 157.6509249738015 | 1.9152e-05 | deg |
peri | 230.9633053407648 | 2.1554e-05 | deg |
M | 229.7304494678448 | 1.2756e-05 | deg |
tp | 2459601.683571691898 (2022-Jan-22.18357169) | 6.1549e-05 | TDB |
period | 1661.371248499561 4.55 | 1.2905e-05 3.533e-08 | d yr |
n | .2166884736479747 | 1.6832e-09 | deg/d |
Q | 3.256648615749552 | 1.6864e-08 | au |
|
| | Orbit Determination Parameters
Additional Information
|